YO6RK-13 Weather Reports


time (UTC)temp
F
wind
direction
speed
knots
gust
knots
rain 1hr
in
rain 24hr
in
rain mn
in
humidity
%
barometer
mb
20260507091027 76 0 0.0 0.0 0.00 0.00 0.00 39 1013.0
20260507090526 76 0 0.0 0.0 0.00 0.00 0.00 40 1013.0
20260507090009 75 0 0.0 0.0 0.00 0.00 0.00 42 1012.9
20260507085526 75 0 0.0 0.0 0.00 0.00 0.00 43 1012.9
20260507085025 74 0 2.6 2.6 0.00 0.00 0.00 46 1012.9
20260507084533 74 293 0.0 0.0 0.00 0.00 0.00 47 1013.0
20260507084048 73 338 2.6 2.6 0.00 0.00 0.00 47 1013.0
20260507083023 71 315 0.0 0.0 0.00 0.00 0.00 48 1013.2
20260507082015 71 338 0.0 0.0 0.00 0.00 0.00 54 1013.2
20260507081512 70 180 0.0 0.0 0.00 0.00 0.00 54 1013.2
20260507081030 68 315 0.0 0.0 0.00 0.00 0.00 55 1013.3
20260507080020 68 338 0.0 0.0 0.00 0.00 0.00 55 1013.4
20260507075035 69 0 0.9 6.1 0.00 0.00 0.00 53 1013.4
20260507074034 69 203 0.0 0.0 0.00 0.00 0.00 52 1013.5
20260507073518 68 180 0.0 0.0 0.00 0.00 0.00 53 1013.6
20260507072516 67 315 0.0 0.0 0.00 0.00 0.00 56 1013.6
20260507072023 66 315 0.0 0.0 0.00 0.00 0.00 59 1013.4
20260507071538 65 315 0.0 0.0 0.00 0.00 0.00 58 1013.6
20260507070512 64 293 0.0 0.0 0.00 0.00 0.00 60 1013.6
20260507070014 63 315 0.0 0.0 0.00 0.00 0.00 61 1013.6
20260507065529 64 23 4.3 4.3 0.00 0.00 0.00 59 1013.7
20260507065036 64 0 0.0 0.0 0.00 0.00 0.00 60 1013.6
20260507064527 64 45 0.0 2.6 0.00 0.00 0.00 60 1013.6
20260507064034 65 225 0.0 0.0 0.00 0.00 0.00 59 1013.6
20260507063510 63 23 0.0 0.0 0.00 0.00 0.00 60 1013.7
20260507063016 63 225 0.0 0.0 0.00 0.00 0.00 59 1013.7
20260507062540 62 0 0.0 0.0 0.00 0.00 0.00 62 1013.8
20260507062023 62 338 0.0 0.0 0.00 0.00 0.00 62 1013.8
20260507061539 62 248 0.0 0.0 0.00 0.00 0.00 61 1013.8
20260507060538 61 315 0.0 0.0 0.00 0.00 0.00 62 1013.9
20260507060020 60 0 0.0 0.0 0.00 0.00 0.00 65 1013.8
20260507055522 59 338 0.0 0.9 0.00 0.00 0.00 65 1013.9
20260507054533 58 315 0.0 0.0 0.00 0.00 0.00 67 1013.9
20260507054043 58 23 0.0 0.0 0.00 0.00 0.00 68 1013.9
20260507053542 57 338 0.0 0.0 0.00 0.00 0.00 69 1014.0
20260507053034 57 315 0.0 1.7 0.00 0.00 0.00 70 1013.9
20260507052517 56 338 0.0 0.0 0.00 0.00 0.00 71 1013.8
20260507052014 56 338 0.0 0.0 0.00 0.00 0.00 73 1013.8
20260507051539 55 338 0.0 0.9 0.00 0.00 0.00 73 1013.9
20260507051023 55 203 0.0 0.0 0.00 0.00 0.00 73 1013.9
20260507050521 54 293 0.0 0.0 0.00 0.00 0.00 74 1013.9
20260507050029 54 293 0.0 0.0 0.00 0.00 0.00 75 1014.0
20260507045528 54 338 6.1 6.1 0.00 0.00 0.00 76 1013.9
20260507045035 53 338 0.0 3.5 0.00 0.00 0.00 76 1013.9
20260507044527 53 203 0.0 0.0 0.00 0.00 0.00 77 1014.0
20260507043530 52 0 0.0 0.0 0.00 0.00 0.00 79 1014.0
20260507043015 51 315 0.0 0.0 0.00 0.00 0.00 80 1013.9
20260507042037 51 293 0.0 1.7 0.00 0.00 0.00 81 1013.9
20260507041529 51 315 0.0 0.0 0.00 0.00 0.00 81 1013.8
20260507041018 50 293 0.0 0.0 0.00 0.00 0.00 81 1013.9
20260507040531 50 315 0.0 0.0 0.00 0.00 0.00 81 1013.8
20260507040034 50 0 1.7 4.3 0.00 0.00 0.00 81 1013.9
20260507035530 50 293 0.0 2.6 0.00 0.00 0.00 81 1013.8
20260507035043 50 338 0.0 0.0 0.00 0.00 0.00 81 1013.7
20260507034540 50 293 0.0 0.9 0.00 0.00 0.00 81 1013.7
20260507033513 50 225 0.0 0.0 0.00 0.00 0.00 81 1013.6
20260507032528 50 293 0.0 0.0 0.00 0.00 0.00 81 1013.6
20260507032011 49 338 5.2 5.2 0.00 0.00 0.00 81 1013.5
20260507031531 49 338 0.0 0.0 0.00 0.00 0.00 83 1013.5
20260507031026 49 315 0.0 0.0 0.00 0.00 0.00 83 1013.5
20260507030528 49 293 0.0 0.0 0.00 0.00 0.00 83 1013.6
20260507030032 49 293 0.0 0.0 0.00 0.00 0.00 83 1013.4
20260507025518 49 293 0.0 0.0 0.00 0.00 0.00 83 1013.4
20260507025023 49 293 0.0 0.0 0.00 0.00 0.00 83 1013.3
20260507024527 49 293 0.0 0.0 0.00 0.00 0.00 82 1013.3
20260507024030 49 293 0.0 0.0 0.00 0.00 0.00 81 1013.3
20260507023513 50 338 0.0 0.0 0.00 0.00 0.00 81 1013.3
20260507022043 50 293 0.0 0.0 0.00 0.00 0.00 80 1013.3
20260507021526 50 338 0.0 0.0 0.00 0.00 0.00 81 1013.2
20260507021017 50 315 0.0 0.0 0.00 0.00 0.00 81 1013.1
20260507020532 50 338 0.0 0.0 0.00 0.00 0.00 81 1013.3
20260507020021 50 315 0.0 0.0 0.00 0.00 0.00 80 1013.1
20260507015521 50 315 0.0 0.0 0.00 0.00 0.00 81 1013.1
20260507015012 50 315 0.0 0.0 0.00 0.00 0.00 80 1013.1
20260507014527 50 293 0.9 0.9 0.00 0.00 0.00 80 1013.2
20260507014026 50 0 1.7 1.7 0.00 0.00 0.00 80 1013.2
20260507013526 51 338 0.0 0.0 0.00 0.00 0.00 80 1013.2
20260507013041 51 315 0.0 0.0 0.00 0.00 0.00 80 1013.3
20260507012023 51 0 0.0 0.0 0.00 0.00 0.00 80 1013.3
20260507011532 51 315 0.0 0.0 0.00 0.00 0.00 79 1013.2
20260507010527 52 338 0.0 0.0 0.00 0.00 0.00 77 1013.2
20260507010012 52 293 0.0 0.0 0.00 0.00 0.00 77 1013.3
20260507005533 52 338 0.0 0.0 0.00 0.00 0.00 76 1013.3
20260507005031 52 338 2.6 2.6 0.00 0.00 0.00 75 1013.2
20260507004516 52 315 0.0 0.0 0.00 0.00 0.00 77 1013.1
20260507003524 52 338 0.0 0.0 0.00 0.00 0.00 77 1013.0
20260507003010 52 315 1.7 1.7 0.00 0.00 0.00 77 1013.0
20260507002522 53 315 0.0 0.0 0.00 0.00 0.00 77 1013.1
20260507002015 53 315 0.0 0.0 0.00 0.00 0.00 78 1013.0
20260507001527 52 338 0.0 0.0 0.00 0.00 0.00 78 1012.9
20260507001012 53 338 0.0 0.0 0.00 0.00 0.00 77 1012.9
20260507000519 53 315 0.0 0.0 0.00 0.00 0.00 76 1013.0
20260507000035 54 0 0.0 0.0 0.00 0.00 0.00 75 1012.9
20260506235518 54 315 0.0 0.0 0.00 0.00 0.00 74 1012.9
20260506234518 54 0 0.0 0.0 0.00 0.00 0.00 74 1013.0
20260506234033 54 315 0.0 0.0 0.00 0.00 0.00 74 1012.9
20260506233532 54 0 0.0 0.0 0.00 0.00 0.00 74 1013.0
20260506232013 55 315 0.0 0.0 0.00 0.00 0.00 72 1012.8
20260506231028 55 293 0.0 2.6 0.00 0.00 0.00 73 1012.8
20260506230529 54 293 0.0 0.0 0.00 0.00 0.00 75 1012.8
20260506230021 54 315 0.0 0.0 0.00 0.00 0.00 75 1012.7
20260506225528 54 338 0.0 0.0 0.00 0.00 0.00 75 1012.7
20260506225034 55 315 1.7 1.7 0.00 0.00 0.00 74 1012.7
20260506224518 55 338 0.0 0.0 0.00 0.00 0.00 73 1012.7
20260506223524 56 315 0.0 0.0 0.00 0.00 0.00 71 1012.7
20260506223022 56 0 0.0 0.0 0.00 0.00 0.00 70 1012.6
20260506222529 56 293 0.0 0.0 0.00 0.00 0.00 69 1012.7
20260506222029 56 338 1.7 1.7 0.00 0.00 0.00 68 1012.7
20260506221020 57 338 0.0 0.0 0.00 0.00 0.00 68 1012.6
20260506220519 57 315 0.0 0.0 0.00 0.00 0.00 67 1012.7
20260506220016 58 0 0.0 0.0 0.00 0.00 0.00 66 1012.6
20260506215532 58 338 0.0 0.0 0.00 0.00 0.00 65 1012.6
20260506215021 59 0 0.0 0.0 0.00 0.00 0.00 64 1012.6
20260506214530 59 203 0.0 0.0 0.00 0.00 0.00 64 1012.6
20260506214012 59 315 0.0 0.0 0.00 0.00 0.00 64 1012.6
20260506213035 59 315 0.0 0.0 0.00 0.00 0.00 65 1012.5
20260506212517 59 0 0.0 0.0 0.00 0.00 0.00 64 1012.5
20260506212026 59 338 0.0 0.0 0.00 0.00 0.00 64 1012.5
20260506211517 59 315 0.0 0.0 0.00 0.00 0.00 65 1012.4
20260506211032 59 0 0.0 0.0 0.00 0.00 0.00 64 1012.3
20260506205514 59 338 0.0 0.0 0.00 0.00 0.00 65 1012.3
20260506205030 59 0 0.0 0.0 0.00 0.00 0.00 65 1012.3
20260506204027 59 338 3.5 3.5 0.00 0.00 0.00 65 1012.2
20260506203527 59 315 0.0 0.0 0.00 0.00 0.00 65 1012.2
20260506203030 59 315 0.0 0.0 0.00 0.00 0.00 65 1012.2
20260506202039 60 315 0.0 0.0 0.00 0.00 0.00 65 1012.0
20260506201515 60 315 0.0 0.0 0.00 0.00 0.00 63 1012.0
20260506201030 60 315 0.0 0.0 0.00 0.00 0.00 62 1012.1
20260506200028 61 315 0.0 0.0 0.00 0.00 0.00 61 1012.0
20260506195535 62 0 0.0 0.0 0.00 0.00 0.00 60 1012.1
20260506195027 62 270 0.0 0.0 0.00 0.00 0.00 60 1012.0
20260506194542 62 338 0.0 0.0 0.00 0.00 0.00 59 1011.9
20260506194034 62 338 0.0 0.0 0.00 0.00 0.00 58 1011.9
20260506193515 63 338 0.0 0.0 0.00 0.00 0.00 57 1011.9
20260506192520 64 158 0.0 0.0 0.00 0.00 0.00 56 1011.8
20260506192028 64 338 0.0 0.0 0.00 0.00 0.00 55 1011.9
20260506191510 65 180 0.0 0.0 0.00 0.00 0.00 52 1011.9
20260506191027 65 203 0.0 0.0 0.00 0.00 0.00 52 1011.8
20260506184540 65 203 0.0 0.0 0.00 0.00 0.00 52 1011.7
20260506184024 66 203 0.0 0.0 0.00 0.00 0.00 51 1011.7
20260506183514 66 158 0.0 0.0 0.00 0.00 0.00 49 1011.6
20260506183031 66 180 0.0 0.0 0.00 0.00 0.00 50 1011.6
20260506182530 65 293 0.0 0.0 0.00 0.00 0.00 50 1011.5
20260506181530 64 270 0.0 0.0 0.00 0.00 0.00 53 1011.4
20260506181030 64 338 0.0 0.0 0.00 0.00 0.00 53 1011.3
20260506180514 65 338 0.0 0.0 0.00 0.00 0.00 52 1011.2
20260506175529 65 0 0.0 0.0 0.00 0.00 0.00 50 1011.2
20260506175019 66 0 0.0 0.0 0.00 0.00 0.00 50 1011.2
20260506174511 66 0 0.0 0.0 0.00 0.00 0.00 50 1011.1
20260506174017 67 338 0.0 0.0 0.00 0.00 0.00 49 1011.0
20260506173524 67 180 0.0 0.0 0.00 0.00 0.00 46 1010.9
20260506172522 68 180 0.0 0.0 0.00 0.00 0.00 47 1011.0
20260506172039 69 180 0.0 0.0 0.00 0.00 0.00 44 1010.9
20260506171539 69 180 0.0 0.0 0.00 0.00 0.00 42 1010.9
20260506171038 70 180 0.0 0.0 0.00 0.00 0.00 41 1010.9
20260506170529 70 180 0.0 0.0 0.00 0.00 0.00 42 1011.0
20260506170021 70 180 0.0 0.0 0.00 0.00 0.00 41 1010.9
20260506165011 71 180 0.0 0.0 0.00 0.00 0.00 39 1010.7
20260506164527 72 180 0.0 0.0 0.00 0.00 0.00 38 1010.8
20260506164026 72 158 0.0 0.0 0.00 0.00 0.00 39 1010.7
20260506163534 72 158 0.0 0.0 0.00 0.00 0.00 39 1010.8
20260506162532 72 158 0.0 0.0 0.00 0.00 0.00 41 1010.8
20260506162032 71 180 0.0 0.0 0.00 0.00 0.00 41 1010.8
20260506161523 71 180 0.0 0.0 0.00 0.00 0.00 41 1010.8
20260506161030 72 180 0.0 0.0 0.00 0.00 0.00 41 1010.8
20260506160513 72 180 0.0 0.0 0.00 0.00 0.00 41 1010.7
20260506154512 74 180 0.0 0.0 0.00 0.00 0.00 35 1010.8
20260506154032 74 180 0.0 0.0 0.00 0.00 0.00 37 1010.7
20260506153023 74 180 0.0 0.0 0.00 0.00 0.00 37 1010.8
20260506152532 74 180 0.0 0.0 0.00 0.00 0.00 37 1010.9
20260506151523 74 180 0.0 0.0 0.00 0.00 0.00 36 1010.9
20260506151020 75 203 0.0 0.0 0.00 0.00 0.00 36 1011.0
20260506150530 75 180 0.0 0.0 0.00 0.00 0.00 38 1010.9
20260506150013 74 180 0.0 0.0 0.00 0.00 0.00 38 1011.1
20260506145031 76 203 0.0 0.0 0.00 0.00 0.00 36 1010.9
20260506144533 76 180 0.0 3.5 0.00 0.00 0.00 33 1010.9
20260506144041 76 203 0.0 0.0 0.00 0.00 0.00 33 1010.8
20260506143525 77 180 2.6 2.6 0.00 0.00 0.00 32 1011.0
20260506143015 77 180 0.0 0.0 0.00 0.00 0.00 33 1010.9
20260506142523 76 158 0.0 0.0 0.00 0.00 0.00 33 1010.9
20260506142030 77 180 0.0 0.9 0.00 0.00 0.00 34 1010.8
20260506141530 77 180 0.0 3.5 0.00 0.00 0.00 35 1010.7
20260506141042 77 203 1.7 3.5 0.00 0.00 0.00 36 1010.8
20260506135532 78 180 1.7 1.7 0.00 0.00 0.00 35 1010.7
20260506134543 78 180 0.0 6.1 0.00 0.00 0.00 35 1010.7
20260506134027 78 158 0.0 0.0 0.00 0.00 0.00 37 1010.7
20260506133529 77 180 0.0 0.0 0.00 0.00 0.00 37 1010.7
20260506133039 78 180 0.0 0.0 0.00 0.00 0.00 37 1010.7
20260506132540 78 180 0.0 0.0 0.00 0.00 0.00 31 1010.7
20260506132016 78 338 0.0 0.0 0.00 0.00 0.00 25 1010.7
20260506131533 78 338 0.0 0.0 0.00 0.00 0.00 24 1010.7
20260506131050 78 23 0.0 0.0 0.00 0.00 0.00 26 1010.5
20260506130520 78 0 0.0 0.0 0.00 0.00 0.00 24 1010.7
20260506130027 78 0 0.0 0.0 0.00 0.00 0.00 24 1010.8
20260506125534 78 0 2.6 2.6 0.00 0.00 0.00 25 1010.8
20260506125042 78 293 4.3 4.3 0.00 0.00 0.00 24 1010.8
20260506124520 78 293 0.0 4.3 0.00 0.00 0.00 23 1010.8
20260506124019 78 0 0.0 0.0 0.00 0.00 0.00 24 1010.8
20260506123536 77 0 0.0 0.0 0.00 0.00 0.00 24 1010.9
20260506123050 78 0 0.0 0.0 0.00 0.00 0.00 23 1010.9
20260506121527 79 0 0.0 2.6 0.00 0.00 0.00 24 1010.9
20260506121043 80 315 0.0 0.0 0.00 0.00 0.00 23 1010.9
20260506120509 80 225 0.0 0.0 0.00 0.00 0.00 24 1011.0
20260506120034 78 0 0.0 0.0 0.00 0.00 0.00 25 1011.0
20260506115517 78 338 0.0 0.0 0.00 0.00 0.00 24 1011.1
20260506115021 80 0 0.0 0.0 0.00 0.00 0.00 24 1011.2
20260506114539 79 0 0.0 0.0 0.00 0.00 0.00 24 1011.3
20260506114038 83 0 0.0 0.0 0.00 0.00 0.00 26 1011.4
20260506112517 80 180 0.0 0.0 0.00 0.00 0.00 28 1011.4
20260506112034 78 315 0.0 0.0 0.00 0.00 0.00 28 1011.4
20260506111549 78 315 0.0 0.0 0.00 0.00 0.00 29 1011.4
20260506110509 80 0 0.0 0.0 0.00 0.00 0.00 27 1011.5
20260506110035 80 225 0.0 0.0 0.00 0.00 0.00 29 1011.6
20260506105542 79 0 0.0 0.0 0.00 0.00 0.00 30 1011.6
20260506105033 79 315 0.0 0.0 0.00 0.00 0.00 30 1011.8
20260506104540 78 338 0.0 0.0 0.00 0.00 0.00 30 1011.8
20260506104016 79 45 0.0 0.0 0.00 0.00 0.00 30 1011.9
20260506103023 77 0 0.0 0.0 0.00 0.00 0.00 33 1011.9
20260506102522 78 0 0.0 0.0 0.00 0.00 0.00 33 1012.0
20260506102012 78 0 1.7 1.7 0.00 0.00 0.00 32 1012.1
20260506101028 78 315 0.0 0.0 0.00 0.00 0.00 33 1012.2
20260506100521 76 0 0.0 0.0 0.00 0.00 0.00 33 1012.3
20260506095033 78 68 0.0 0.0 0.00 0.00 0.00 32 1012.3
20260506094509 76 23 0.0 0.0 0.00 0.00 0.00 32 1012.3
20260506094041 76 23 0.0 0.0 0.00 0.00 0.00 32 1012.5
20260506093033 79 158 0.0 0.0 0.00 0.00 0.00 34 1012.4
20260506092510 78 135 0.0 0.0 0.00 0.00 0.00 33 1012.5
20260506091528 78 225 0.0 0.0 0.00 0.00 0.00 36 1012.5